STARLINK-1676, 46556

Orbit data source: Space-Track

STARLINK-1676, 46556 is a payload satellite owned by SpaceX/Seattle (US) in LEO that was launched on Tue, 06 Oct 2020 UTC via an FALCON 9 launch vehicle from the Air Force Eastern Test Range (AFETR). Payload-class satellites include a variety of spacecraft equipped with specific instruments for various scientific and technological missions. These include communications satellites like Starlink; space stations such as the ISS; scientific satellites like the Hubble; Earth observation satellites from companies like Planet Labs, Umbra, and HawkEye 360; GPS; miniature CubeSats for education and research; and military/defense satellites.

Loading next visibility...
Identifier
46556, 2020-070AA
Orbit
LEO
Last TLE update
1 day ago
Origin
Manufacturer
SpaceX/Seattle
Mission
Operational Commercial Communications
Bus & Motor
STARLINK, Unknown motor
Mass
260 kg wet, ~248 kg dry
Launch date (UTC)
2020-10-06 (5 years ago)
Launch vehicle
FALCON 9
Launch site
Air Force Eastern Test Range (AFETR)
Object type
Payload
Rocket body
Debris
Shape & HBR
Box + 1 Pan, 8.86 m
Radar Cross Section
13.562 m², Large (>1 m²)

Expand to show TLE details & history

TLE from 1 day ago
0 STARLINK-1676
1 46556U 20070AA  25128.21892690  .00001473  00000-0  11778-3 0  9992
2 46556  53.0552 107.9247 0001377  86.7111 273.4035 15.06397742253468
Epoch: 2025-05-08T05:15Z
Definitive object data (Epoch: 2025-05-08T05:15:15.284Z)
Latitude
-0.00005°
Longitude
162.81841°
Altitude
548.041 km
Speed
7.589 km/s
True Right ascension
07h 11m 41s
True Declination
0° 00' 00"
Sunlit
Object was in daylight at TLE epoch
Visualization TLE readout
Latitude
48.24072°
Longitude
-145.10628°
Altitude
551.736 km
Speed
7.592 km/s
Apparent Right ascension
06h 45m 37s
Apparent Declination
11° 26' 41"
Sunlit
Object is in daylight
Visualization observer readout
Local Sidereal Time
15:10:59
Azimuth
303.618° NW
Elevation
-18.552°
Doppler factor
1
Orbital elements
Apogee altitude
548.443 km
Perigee altitude
546.535 km
Semi-major axis
6,925.626 km
Eccentricity
0.0001377
Inclination
53.0552°
RAAN
107.9247°
Arg. of periapsis
86.7111°
True anomaly
273.38775°
Mean anomaly
273.4035°
Eccentric anomaly
273.39562°
Mean motion
3.76578 °/min
BSTAR
0.00011778
Orbital period
95.6 mins
Loading maneuver chart data...
Loading SW <> Apogee altitude chart data...
Loading historical data...
Loading historical data...
Loading historical data...
Loading historical data...
Loading historical data...
Loading historical data...
Loading historical data...

STARLINK-1676 Visibility forecast

Observer location: undefined°, undefined°

Span
Click to sort rows by Start time (UTC) header in descending order
Start Az.
Max El. time (UTC)
Max El. Az.
Max El.
End time (UTC)
End Az.
7 mins2025-05-09 07:12:03.989Z326.117° NNW2025-05-09 07:15:03.989Z22.9° NE30.825°2025-05-09 07:19:03.989Z99.698° ESE
5 mins2025-05-09 08:53:03.989Z272.706° WNW2025-05-09 08:55:03.989Z218.298° SW28.77°2025-05-09 08:58:03.989Z165.711° S
6 mins2025-05-10 00:25:03.989Z198.018° SSW2025-05-10 00:28:03.989Z114.354° SE33.91°2025-05-10 00:31:03.989Z63.904° ENE
5 mins2025-05-10 02:05:03.989Z281.891° WNW2025-05-10 02:07:03.989Z326.086° NNW27.17°2025-05-10 02:10:03.989Z28.227° NE
|